Location: Palomar Mountain Lodge
(33.3110°N, 116.8495°W)
Time: 10:55:05
(UTC-07:00)

Cosmos 1238 Rocket - Pass Details

Date: 14 June 2018
Orbit: 375 x 1040 km, 82.9° (Epoch: 15 October)

Event Time Altitude Azimuth Distance (km) Brightness Sun altitude
Exits shadow 22:15:12 25° 23° (NNE) 846 4.0 -22.7°
Drops below altitude 10° 22:16:35 10° 15° (NNE) 1,410 5.4 -22.9°
Sets 22:18:30 0° 11° (N) 2,245 6.5 -23.1°
